Volver al catálogo

METEOR 2-17 DEB

ActivoPO
NORAD 31397·DEBRIS·🇷🇺 Russia

Lanzado Jan 30, 1988 desde Plesetsk Cosmodrome

Loading…

Próximos Pases (próximas 24 horas)

TLE

ActualizadoSource: Space-Track

Época: Sep 11, 2026, 19:34 UTC

1 31397U 88005S   26254.81539720  .00001564  00000-0  96226-3 0  9992
2 31397  82.5376 195.6524 0006621 343.9975  45.4782 14.05032270  1648

Sigue METEOR 2-17 DEB en tiempo real con AllMySat

Download on the App Store